UKV1251 NFFN-NWWW

Flight info

Callsign UKV1251
Flight time 1h 50m
Altitude 32000
Route ALBAB B599 MESUS MESUS2
Aircraft B738/M-SDE2E3FGIRWY/LB1

Departure

Time 2026-04-26 14:33
Airport Nadi International Airport (NFFN)

Arrival

Time 2026-04-26 16:24
Airport La Tontouta International Airport (NWWW)
Time Latitude Longitude Altitude Speed Heading
2026-04-26 13:43 -17.75252 177.45021 52 ft 0 kts 107°
2026-04-26 13:53 -17.75249 177.45011 51 ft 3 kts 101°
2026-04-26 13:53 -17.75247 177.44990 50 ft 3 kts 90°
2026-04-26 13:53 -17.75246 177.44971 49 ft 2 kts 97°
2026-04-26 13:53 -17.75246 177.44952 48 ft 3 kts 67°
2026-04-26 13:54 -17.75256 177.44935 48 ft 3 kts 37°
2026-04-26 13:54 -17.75273 177.44925 46 ft 3 kts 17°
2026-04-26 13:54 -17.75285 177.44922 48 ft 1 kts 10°
2026-04-26 13:55 -17.75288 177.44921 49 ft 0 kts 10°
2026-04-26 14:28 -17.75287 177.44921 52 ft 1 kts 10°
2026-04-26 14:29 -17.75273 177.44924 49 ft 3 kts
2026-04-26 14:29 -17.75269 177.44924 51 ft 0 kts
2026-04-26 14:30 -17.75256 177.44926 52 ft 6 kts
2026-04-26 14:31 -17.75186 177.44916 53 ft 12 kts 323°
2026-04-26 14:31 -17.75152 177.44851 51 ft 10 kts 285°
2026-04-26 14:31 -17.75139 177.44799 52 ft 6 kts 284°
2026-04-26 14:31 -17.75128 177.44752 49 ft 8 kts 284°
2026-04-26 14:32 -17.75116 177.44684 52 ft 11 kts 268°
2026-04-26 14:32 -17.75152 177.44626 48 ft 0 kts 214°
2026-04-26 14:32 -17.75161 177.44619 50 ft 15 kts 216°
2026-04-26 14:33 -17.75472 177.44369 47 ft 96 kts 217°
2026-04-26 14:33 -17.76199 177.43791 47 ft 164 kts 216°
2026-04-26 14:33 -17.77146 177.42937 538 ft 184 kts 225°
2026-04-26 14:33 -17.78045 177.41966 1403 ft 196 kts 224°
2026-04-26 14:34 -17.79096 177.40916 1840 ft 215 kts 223°
2026-04-26 14:34 -17.80199 177.39827 2268 ft 225 kts 223°
2026-04-26 14:34 -17.81263 177.38574 2677 ft 235 kts 241°
2026-04-26 14:34 -17.81904 177.36981 3100 ft 239 kts 248°
2026-04-26 14:35 -17.82528 177.35361 3528 ft 240 kts 248°
2026-04-26 14:35 -17.83163 177.33733 3969 ft 242 kts 248°
2026-04-26 14:35 -17.83816 177.32083 4412 ft 246 kts 248°
2026-04-26 14:35 -17.84494 177.30421 4859 ft 248 kts 248°
2026-04-26 14:36 -17.85178 177.28751 5295 ft 250 kts 248°
2026-04-26 14:36 -17.85854 177.27096 5728 ft 250 kts 248°
2026-04-26 14:36 -17.86534 177.25391 6070 ft 261 kts 250°
2026-04-26 14:36 -17.87164 177.23516 6393 ft 280 kts 252°
2026-04-26 14:37 -17.87782 177.21558 7030 ft 285 kts 252°
2026-04-26 14:37 -17.88405 177.19579 7785 ft 286 kts 252°
2026-04-26 14:37 -17.89033 177.17592 8525 ft 288 kts 252°
2026-04-26 14:37 -17.89672 177.15589 9262 ft 290 kts 252°
2026-04-26 14:38 -17.90319 177.13569 9979 ft 293 kts 252°
2026-04-26 14:38 -17.90982 177.11510 10402 ft 307 kts 252°
2026-04-26 14:38 -17.91692 177.09306 10543 ft 329 kts 252°
2026-04-26 14:38 -17.92192 177.07759 10645 ft 343 kts 252°
2026-04-26 14:39 -17.93246 177.04500 10870 ft 366 kts 252°
2026-04-26 14:39 -17.94087 177.01907 11293 ft 374 kts 252°
2026-04-26 14:39 -17.94918 176.99348 11848 ft 376 kts 252°
2026-04-26 14:39 -17.95765 176.96741 12426 ft 379 kts 252°
2026-04-26 14:40 -17.96619 176.94111 12954 ft 382 kts 253°
2026-04-26 14:40 -17.97479 176.91462 13541 ft 383 kts 253°
2026-04-26 14:40 -17.98342 176.88802 14050 ft 386 kts 253°
2026-04-26 14:40 -17.99211 176.86124 14545 ft 388 kts 253°
2026-04-26 14:41 -18.00084 176.83429 15048 ft 390 kts 253°
2026-04-26 14:41 -18.00958 176.80729 15538 ft 392 kts 253°
2026-04-26 14:41 -18.01839 176.78007 15845 ft 393 kts 253°
2026-04-26 14:41 -18.02707 176.75327 15859 ft 393 kts 253°
2026-04-26 14:42 -18.03589 176.72598 15868 ft 394 kts 253°
2026-04-26 14:42 -18.04469 176.69876 15873 ft 393 kts 253°
2026-04-26 14:42 -18.05350 176.67150 15872 ft 393 kts 253°
2026-04-26 14:42 -18.06230 176.64423 15868 ft 393 kts 253°
2026-04-26 14:43 -18.07109 176.61700 15869 ft 393 kts 253°
2026-04-26 14:43 -18.07987 176.58977 15869 ft 393 kts 253°
2026-04-26 14:43 -18.08866 176.56252 15869 ft 393 kts 253°
2026-04-26 14:43 -18.09748 176.53511 15974 ft 399 kts 253°
2026-04-26 14:44 -18.10638 176.50748 16505 ft 398 kts 253°
2026-04-26 14:44 -18.11514 176.48024 17092 ft 397 kts 253°
2026-04-26 14:44 -18.12401 176.45269 17575 ft 399 kts 253°
2026-04-26 14:44 -18.13292 176.42496 18007 ft 402 kts 253°
2026-04-26 14:45 -18.14188 176.39705 18396 ft 404 kts 254°
2026-04-26 14:45 -18.14796 176.37810 18649 ft 406 kts 254°
2026-04-26 14:45 -18.15998 176.34065 19146 ft 408 kts 254°
2026-04-26 14:45 -18.16910 176.31224 19510 ft 411 kts 254°
2026-04-26 14:46 -18.17816 176.28397 19872 ft 413 kts 254°
2026-04-26 14:46 -18.18735 176.25530 20222 ft 415 kts 254°
2026-04-26 14:46 -18.19657 176.22650 20573 ft 417 kts 254°
2026-04-26 14:46 -18.20585 176.19749 20916 ft 419 kts 254°
2026-04-26 14:47 -18.21517 176.16837 21245 ft 421 kts 254°
2026-04-26 14:47 -18.22454 176.13907 21577 ft 423 kts 254°
2026-04-26 14:47 -18.23395 176.10962 21893 ft 425 kts 254°
2026-04-26 14:47 -18.24340 176.08002 22214 ft 428 kts 254°
2026-04-26 14:48 -18.25291 176.05021 22520 ft 430 kts 254°
2026-04-26 14:48 -18.26234 176.02067 22817 ft 432 kts 254°
2026-04-26 14:48 -18.27202 175.99031 23135 ft 433 kts 254°
2026-04-26 14:48 -18.28151 175.96053 23424 ft 435 kts 254°
2026-04-26 14:49 -18.29115 175.93026 23662 ft 437 kts 254°
2026-04-26 14:49 -18.30083 175.89987 23910 ft 438 kts 254°
2026-04-26 14:49 -18.31053 175.86943 24162 ft 439 kts 254°
2026-04-26 14:49 -18.32025 175.83886 24415 ft 440 kts 254°
2026-04-26 14:50 -18.32998 175.80824 24661 ft 441 kts 254°
2026-04-26 14:50 -18.34072 175.77792 24915 ft 443 kts 251°
2026-04-26 14:50 -18.35288 175.74799 25151 ft 446 kts 249°
2026-04-26 14:50 -18.36564 175.71821 25369 ft 447 kts 249°
2026-04-26 14:51 -18.37842 175.68871 25603 ft 448 kts 249°
2026-04-26 14:51 -18.39135 175.65871 25850 ft 449 kts 249°
2026-04-26 14:51 -18.40411 175.62876 26093 ft 449 kts 250°
2026-04-26 14:51 -18.41682 175.59865 26301 ft 451 kts 250°
2026-04-26 14:52 -18.42949 175.56837 26495 ft 452 kts 250°
2026-04-26 14:52 -18.44218 175.53796 26697 ft 453 kts 250°
2026-04-26 14:52 -18.45058 175.51777 26835 ft 454 kts 250°
2026-04-26 14:52 -18.46333 175.48713 27038 ft 455 kts 250°
2026-04-26 14:53 -18.48018 175.44659 27298 ft 456 kts 250°
2026-04-26 14:53 -18.49290 175.41603 27512 ft 455 kts 250°
2026-04-26 14:53 -18.50557 175.38556 27723 ft 453 kts 250°
2026-04-26 14:53 -18.51823 175.35510 27905 ft 453 kts 250°
2026-04-26 14:54 -18.52676 175.33454 28024 ft 453 kts 250°
2026-04-26 14:54 -18.53939 175.30412 28206 ft 453 kts 250°
2026-04-26 14:54 -18.55201 175.27370 28416 ft 452 kts 250°
2026-04-26 14:54 -18.56445 175.24373 28618 ft 452 kts 250°
2026-04-26 14:55 -18.57701 175.21343 28808 ft 451 kts 250°
2026-04-26 14:55 -18.58955 175.18316 29012 ft 451 kts 251°
2026-04-26 14:55 -18.60210 175.15286 29223 ft 450 kts 251°
2026-04-26 14:55 -18.61461 175.12265 29440 ft 450 kts 251°
2026-04-26 14:56 -18.62711 175.09243 29634 ft 449 kts 251°
2026-04-26 14:56 -18.63961 175.06223 29853 ft 449 kts 251°
2026-04-26 14:56 -18.65208 175.03206 30037 ft 449 kts 251°
2026-04-26 14:56 -18.66455 175.00185 30185 ft 449 kts 251°
2026-04-26 14:57 -18.67701 174.97166 30361 ft 449 kts 251°
2026-04-26 14:57 -18.68946 174.94147 30581 ft 447 kts 251°
2026-04-26 14:57 -18.70184 174.91147 30811 ft 446 kts 251°
2026-04-26 14:57 -18.71422 174.88149 31018 ft 444 kts 251°
2026-04-26 14:58 -18.72653 174.85167 31325 ft 441 kts 251°
2026-04-26 14:58 -18.73875 174.82206 31573 ft 439 kts 251°
2026-04-26 14:58 -18.75093 174.79252 31732 ft 439 kts 251°
2026-04-26 14:58 -18.76310 174.76297 31837 ft 440 kts 251°
2026-04-26 14:59 -18.77520 174.73355 31849 ft 442 kts 251°
2026-04-26 14:59 -18.79963 174.67419 31852 ft 439 kts 251°
2026-04-26 15:00 -18.82392 174.61514 31853 ft 437 kts 251°
2026-04-26 15:00 -18.84806 174.55637 31858 ft 436 kts 251°
2026-04-26 15:01 -18.87218 174.49756 31860 ft 435 kts 251°
2026-04-26 15:01 -18.89609 174.43920 31856 ft 436 kts 251°
2026-04-26 15:02 -18.92022 174.38024 31857 ft 437 kts 251°
2026-04-26 15:02 -18.94435 174.32124 31855 ft 438 kts 251°
2026-04-26 15:03 -18.96853 174.26203 31857 ft 439 kts 251°
2026-04-26 15:03 -18.99277 174.20262 31856 ft 440 kts 251°
2026-04-26 15:04 -19.01704 174.14310 31856 ft 441 kts 251°
2026-04-26 15:04 -19.04116 174.08387 31862 ft 442 kts 252°
2026-04-26 15:05 -19.06543 174.02421 31853 ft 441 kts 252°
2026-04-26 15:05 -19.08965 173.96462 31853 ft 440 kts 252°
2026-04-26 15:06 -19.11380 173.90513 31853 ft 439 kts 252°
2026-04-26 15:06 -19.13787 173.84578 31853 ft 438 kts 252°
2026-04-26 15:07 -19.17379 173.75706 31854 ft 437 kts 252°
2026-04-26 15:07 -19.19767 173.69800 31854 ft 436 kts 252°
2026-04-26 15:08 -19.22149 173.63903 31855 ft 436 kts 252°
2026-04-26 15:08 -19.24514 173.58039 31855 ft 436 kts 252°
2026-04-26 15:09 -19.26898 173.52124 31857 ft 436 kts 252°
2026-04-26 15:09 -19.29277 173.46215 31854 ft 436 kts 252°
2026-04-26 15:10 -19.31249 173.41311 31857 ft 436 kts 252°
2026-04-26 15:10 -19.34011 173.34438 31870 ft 436 kts 252°
2026-04-26 15:11 -19.36382 173.28530 31856 ft 436 kts 252°
2026-04-26 15:11 -19.38750 173.22623 31852 ft 435 kts 252°
2026-04-26 15:12 -19.41110 173.16730 31854 ft 434 kts 252°
2026-04-26 15:12 -19.43463 173.10846 31857 ft 433 kts 252°
2026-04-26 15:13 -19.45804 173.04987 31851 ft 431 kts 252°
2026-04-26 15:13 -19.48140 172.99136 31853 ft 430 kts 252°
2026-04-26 15:14 -19.50452 172.93337 31857 ft 429 kts 252°
2026-04-26 15:14 -19.52771 172.87515 31862 ft 428 kts 252°
2026-04-26 15:15 -19.55083 172.81701 31856 ft 427 kts 252°
2026-04-26 15:15 -19.57393 172.75887 31858 ft 427 kts 252°
2026-04-26 15:16 -19.59700 172.70074 31854 ft 428 kts 252°
2026-04-26 15:16 -19.61993 172.64290 31855 ft 428 kts 252°
2026-04-26 15:17 -19.63912 172.59446 31855 ft 428 kts 252°
2026-04-26 15:17 -19.66612 172.52623 31868 ft 429 kts 253°
2026-04-26 15:18 -19.68910 172.46806 31859 ft 429 kts 253°
2026-04-26 15:18 -19.71220 172.40956 31865 ft 429 kts 253°
2026-04-26 15:19 -19.73522 172.35119 31860 ft 428 kts 253°
2026-04-26 15:19 -19.75823 172.29277 31859 ft 428 kts 253°
2026-04-26 15:20 -19.78100 172.23490 31852 ft 427 kts 253°
2026-04-26 15:20 -19.80387 172.17672 31852 ft 426 kts 253°
2026-04-26 15:21 -19.82668 172.11862 31855 ft 426 kts 253°
2026-04-26 15:21 -19.84945 172.06055 31859 ft 425 kts 253°
2026-04-26 15:22 -19.87220 172.00247 31853 ft 425 kts 253°
2026-04-26 15:22 -19.89475 171.94482 31861 ft 425 kts 253°
2026-04-26 15:23 -19.91743 171.88680 31855 ft 425 kts 253°
2026-04-26 15:23 -19.94014 171.82862 31856 ft 425 kts 253°
2026-04-26 15:24 -19.96280 171.77052 31861 ft 426 kts 253°
2026-04-26 15:24 -19.98548 171.71230 31856 ft 426 kts 253°
2026-04-26 15:25 -20.00428 171.66398 31857 ft 425 kts 253°
2026-04-26 15:25 -20.03068 171.59607 31858 ft 425 kts 253°
2026-04-26 15:26 -20.05308 171.53838 31857 ft 424 kts 253°
2026-04-26 15:26 -20.07557 171.48038 31857 ft 424 kts 253°
2026-04-26 15:27 -20.09803 171.42239 31857 ft 423 kts 253°
2026-04-26 15:27 -20.12047 171.36441 31858 ft 423 kts 253°
2026-04-26 15:28 -20.14286 171.30648 31858 ft 423 kts 253°
2026-04-26 15:28 -20.16519 171.24862 31862 ft 422 kts 253°
2026-04-26 15:29 -20.18735 171.19115 31860 ft 422 kts 253°
2026-04-26 15:30 -20.23189 171.07546 31861 ft 422 kts 253°
2026-04-26 15:30 -20.25413 171.01761 31876 ft 422 kts 254°
2026-04-26 15:31 -20.28734 170.93106 31856 ft 419 kts 254°
2026-04-26 15:32 -20.31290 170.86437 31863 ft 417 kts 254°
2026-04-26 15:32 -20.34200 170.78834 31858 ft 415 kts 254°
2026-04-26 15:33 -20.36371 170.73154 31860 ft 413 kts 255°
2026-04-26 15:33 -20.38536 170.67483 31860 ft 412 kts 255°
2026-04-26 15:34 -20.40695 170.61821 31861 ft 412 kts 255°
2026-04-26 15:34 -20.42854 170.56156 31861 ft 412 kts 255°
2026-04-26 15:35 -20.45014 170.50478 31869 ft 413 kts 255°
2026-04-26 15:35 -20.47169 170.44798 31863 ft 414 kts 255°
2026-04-26 15:36 -20.49313 170.39140 31861 ft 414 kts 255°
2026-04-26 15:36 -20.51473 170.33439 31860 ft 415 kts 255°
2026-04-26 15:37 -20.53637 170.27722 31881 ft 415 kts 255°
2026-04-26 15:37 -20.55800 170.22006 31868 ft 415 kts 255°
2026-04-26 15:38 -20.57956 170.16300 31861 ft 414 kts 255°
2026-04-26 15:38 -20.60105 170.10606 31862 ft 413 kts 255°
2026-04-26 15:39 -20.62237 170.04951 31862 ft 412 kts 255°
2026-04-26 15:39 -20.63664 170.01162 31865 ft 411 kts 255°
2026-04-26 15:40 -20.66137 169.94589 31862 ft 410 kts 255°
2026-04-26 15:40 -20.68260 169.88937 31863 ft 409 kts 255°
2026-04-26 15:41 -20.70722 169.82377 31866 ft 409 kts 255°
2026-04-26 15:41 -20.72836 169.76735 31869 ft 409 kts 255°
2026-04-26 15:42 -20.74607 169.72005 31868 ft 409 kts 255°
2026-04-26 15:42 -20.76705 169.66394 31868 ft 409 kts 255°
2026-04-26 15:43 -20.78815 169.60746 31869 ft 409 kts 255°
2026-04-26 15:44 -20.81984 169.52251 31896 ft 409 kts 255°
2026-04-26 15:44 -20.85145 169.43763 31873 ft 409 kts 255°
2026-04-26 15:45 -20.88282 169.35327 31867 ft 408 kts 255°
2026-04-26 15:46 -20.91417 169.26878 31862 ft 407 kts 255°
2026-04-26 15:46 -20.93164 169.22165 31871 ft 406 kts 255°
2026-04-26 15:47 -20.96627 169.12807 31869 ft 406 kts 255°
2026-04-26 15:48 -20.98688 169.07227 31875 ft 405 kts 255°
2026-04-26 15:48 -21.00759 169.01615 31873 ft 405 kts 255°
2026-04-26 15:49 -21.02833 168.95988 31869 ft 406 kts 255°
2026-04-26 15:49 -21.04903 168.90366 31869 ft 406 kts 255°
2026-04-26 15:50 -21.06962 168.84768 31872 ft 406 kts 255°
2026-04-26 15:50 -21.09032 168.79134 31871 ft 406 kts 255°
2026-04-26 15:51 -21.11100 168.73496 31869 ft 407 kts 255°
2026-04-26 15:51 -21.13167 168.67858 31880 ft 407 kts 255°
2026-04-26 15:52 -21.15236 168.62207 31871 ft 407 kts 255°
2026-04-26 15:52 -21.17301 168.56559 31874 ft 407 kts 255°
2026-04-26 15:53 -21.19351 168.50946 31869 ft 407 kts 255°
2026-04-26 15:53 -21.21413 168.45294 31869 ft 406 kts 255°
2026-04-26 15:54 -21.23471 168.39648 31868 ft 406 kts 255°
2026-04-26 15:54 -21.25526 168.34001 31868 ft 406 kts 255°
2026-04-26 15:55 -21.27565 168.28397 31870 ft 406 kts 255°
2026-04-26 15:55 -21.29610 168.22767 31870 ft 405 kts 255°
2026-04-26 15:56 -21.31649 168.17132 31870 ft 404 kts 255°
2026-04-26 15:56 -21.33681 168.11492 31870 ft 404 kts 255°
2026-04-26 15:57 -21.35708 168.05857 31870 ft 405 kts 255°
2026-04-26 15:57 -21.37721 168.00253 31855 ft 405 kts 255°
2026-04-26 15:57 -21.38410 167.98333 31339 ft 411 kts 255°
2026-04-26 15:58 -21.39765 167.94563 30421 ft 405 kts 255°
2026-04-26 15:58 -21.40785 167.91754 29712 ft 402 kts 255°
2026-04-26 15:58 -21.41802 167.88964 28920 ft 400 kts 255°
2026-04-26 15:58 -21.42807 167.86195 28152 ft 397 kts 255°
2026-04-26 15:59 -21.43798 167.83440 27402 ft 394 kts 255°
2026-04-26 15:59 -21.44772 167.80698 26666 ft 391 kts 255°
2026-04-26 15:59 -21.45712 167.78008 25966 ft 388 kts 255°
2026-04-26 15:59 -21.46653 167.75272 25261 ft 384 kts 255°
2026-04-26 16:00 -21.47550 167.72620 24590 ft 380 kts 255°
2026-04-26 16:00 -21.48433 167.69957 23925 ft 376 kts 255°
2026-04-26 16:00 -21.49293 167.67316 23239 ft 373 kts 255°
2026-04-26 16:00 -21.50173 167.64727 22759 ft 361 kts 253°
2026-04-26 16:01 -21.51090 167.62284 22504 ft 346 kts 252°
2026-04-26 16:01 -21.51987 167.59925 22250 ft 337 kts 253°
2026-04-26 16:01 -21.52860 167.57595 22009 ft 336 kts 253°
2026-04-26 16:01 -21.53568 167.55670 21806 ft 336 kts 253°
2026-04-26 16:02 -21.53833 167.54943 21729 ft 336 kts 253°
2026-04-26 16:02 -21.54680 167.52601 21484 ft 336 kts 253°
2026-04-26 16:02 -21.55521 167.50257 21241 ft 336 kts 253°
2026-04-26 16:02 -21.56075 167.48702 21074 ft 336 kts 253°
2026-04-26 16:03 -21.57192 167.45557 20759 ft 337 kts 254°
2026-04-26 16:03 -21.58015 167.43232 20525 ft 337 kts 254°
2026-04-26 16:03 -21.58848 167.40875 20288 ft 337 kts 254°
2026-04-26 16:03 -21.59679 167.38520 20054 ft 337 kts 254°
2026-04-26 16:04 -21.60510 167.36165 19820 ft 337 kts 254°
2026-04-26 16:04 -21.61338 167.33816 19588 ft 336 kts 254°
2026-04-26 16:04 -21.62165 167.31470 19354 ft 335 kts 254°
2026-04-26 16:04 -21.62989 167.29129 19123 ft 334 kts 254°
2026-04-26 16:05 -21.63812 167.26790 18911 ft 334 kts 254°
2026-04-26 16:05 -21.64632 167.24458 18691 ft 332 kts 254°
2026-04-26 16:05 -21.65449 167.22136 18463 ft 331 kts 255°
2026-04-26 16:05 -21.66251 167.19852 18245 ft 331 kts 255°
2026-04-26 16:06 -21.67062 167.17542 18001 ft 330 kts 255°
2026-04-26 16:06 -21.67871 167.15236 17741 ft 329 kts 255°
2026-04-26 16:06 -21.68680 167.12931 17486 ft 329 kts 255°
2026-04-26 16:06 -21.69485 167.10635 17233 ft 328 kts 255°
2026-04-26 16:07 -21.70292 167.08332 16981 ft 327 kts 255°
2026-04-26 16:07 -21.71093 167.06044 16728 ft 326 kts 255°
2026-04-26 16:07 -21.71894 167.03757 16482 ft 326 kts 255°
2026-04-26 16:07 -21.72690 167.01480 16235 ft 325 kts 255°
2026-04-26 16:08 -21.73475 166.99236 15997 ft 324 kts 255°
2026-04-26 16:08 -21.74011 166.97703 15835 ft 324 kts 255°
2026-04-26 16:08 -21.75061 166.94698 15514 ft 323 kts 255°
2026-04-26 16:08 -21.75849 166.92440 15277 ft 322 kts 255°
2026-04-26 16:09 -21.76637 166.90182 15042 ft 322 kts 255°
2026-04-26 16:09 -21.77422 166.87932 14805 ft 321 kts 255°
2026-04-26 16:09 -21.78207 166.85681 14584 ft 321 kts 255°
2026-04-26 16:09 -21.78989 166.83439 14351 ft 319 kts 255°
2026-04-26 16:10 -21.79758 166.81232 14122 ft 319 kts 255°
2026-04-26 16:10 -21.80534 166.79003 13904 ft 318 kts 255°
2026-04-26 16:10 -21.81310 166.76771 13673 ft 317 kts 255°
2026-04-26 16:10 -21.82083 166.74551 13417 ft 316 kts 255°
2026-04-26 16:11 -21.82853 166.72333 13161 ft 315 kts 255°
2026-04-26 16:11 -21.83620 166.70126 12908 ft 314 kts 255°
2026-04-26 16:11 -21.84385 166.67923 12654 ft 313 kts 254°
2026-04-26 16:11 -21.85146 166.65733 12398 ft 312 kts 254°
2026-04-26 16:12 -21.85905 166.63546 12160 ft 311 kts 254°
2026-04-26 16:12 -21.86660 166.61368 11921 ft 310 kts 254°
2026-04-26 16:12 -21.88154 166.57058 11437 ft 308 kts 254°
2026-04-26 16:13 -21.88904 166.54892 11198 ft 307 kts 253°
2026-04-26 16:13 -21.89649 166.52743 10987 ft 305 kts 254°
2026-04-26 16:13 -21.90383 166.50625 11061 ft 302 kts 254°
2026-04-26 16:13 -21.91119 166.48493 11012 ft 303 kts 254°
2026-04-26 16:14 -21.91850 166.46375 10994 ft 301 kts 254°
2026-04-26 16:14 -21.92585 166.44246 11025 ft 304 kts 254°
2026-04-26 16:14 -21.94041 166.39966 11003 ft 305 kts 254°
2026-04-26 16:15 -21.94783 166.37844 10867 ft 299 kts 254°
2026-04-26 16:15 -21.95502 166.35786 10595 ft 288 kts 253°
2026-04-26 16:15 -21.96218 166.33835 10474 ft 271 kts 253°
2026-04-26 16:16 -21.97431 166.30151 10204 ft 254 kts 262°
2026-04-26 16:16 -21.97400 166.28293 10087 ft 248 kts 287°
2026-04-26 16:16 -21.96838 166.26506 10078 ft 257 kts 291°
2026-04-26 16:16 -21.96151 166.24663 9362 ft 273 kts 297°
2026-04-26 16:17 -21.95164 166.22890 8642 ft 279 kts 302°
2026-04-26 16:17 -21.94099 166.21109 7888 ft 285 kts 302°
2026-04-26 16:17 -21.92998 166.19313 7180 ft 289 kts 303°
2026-04-26 16:17 -21.91883 166.17490 6478 ft 294 kts 303°
2026-04-26 16:18 -21.90754 166.15666 5756 ft 298 kts 306°
2026-04-26 16:18 -21.88052 166.12211 4263 ft 305 kts 304°
2026-04-26 16:19 -21.86621 166.08004 3116 ft 300 kts 268°
2026-04-26 16:19 -21.87133 166.05861 2616 ft 295 kts 242°
2026-04-26 16:19 -21.89656 166.03763 2033 ft 274 kts 188°
2026-04-26 16:20 -21.91970 166.04337 1823 ft 246 kts 140°
2026-04-26 16:20 -21.93538 166.07151 1793 ft 201 kts 120°
2026-04-26 16:20 -21.94243 166.08414 1803 ft 197 kts 121°
2026-04-26 16:21 -21.94928 166.09630 1787 ft 179 kts 120°
2026-04-26 16:21 -21.95517 166.10681 1804 ft 155 kts 120°
2026-04-26 16:21 -21.96065 166.11668 1754 ft 152 kts 119°
2026-04-26 16:21 -21.96622 166.12649 1586 ft 153 kts 122°
2026-04-26 16:22 -21.97167 166.13638 1349 ft 154 kts 118°
2026-04-26 16:22 -21.97706 166.14629 1116 ft 152 kts 121°
2026-04-26 16:22 -21.98273 166.15597 1004 ft 153 kts 121°
2026-04-26 16:22 -21.98820 166.16592 923 ft 156 kts 117°
2026-04-26 16:23 -21.99378 166.17609 722 ft 159 kts 121°
2026-04-26 16:23 -21.99966 166.18633 446 ft 161 kts 118°
2026-04-26 16:23 -22.00526 166.19668 170 ft 157 kts 120°
2026-04-26 16:23 -22.01069 166.20645 22 ft 144 kts 124°
2026-04-26 16:24 -22.01514 166.21427 25 ft 101 kts 122°
2026-04-26 16:24 -22.01752 166.21846 29 ft 45 kts 121°
2026-04-26 16:24 -22.01905 166.22125 29 ft 43 kts 120°
2026-04-26 16:24 -22.02047 166.22385 29 ft 30 kts 121°
2026-04-26 16:25 -22.02121 166.22544 29 ft 18 kts 109°
2026-04-26 16:25 -22.02141 166.22590 31 ft 0 kts 146°
2026-04-26 16:25 -22.02153 166.22583 31 ft 4 kts 230°
2026-04-26 16:25 -22.02131 166.22507 30 ft 19 kts 304°
2026-04-26 16:26 -22.02039 166.22339 29 ft 33 kts 301°
2026-04-26 16:26 -22.01954 166.22189 29 ft 36 kts 301°
2026-04-26 16:26 -22.01790 166.21890 30 ft 33 kts 300°
2026-04-26 16:26 -22.01687 166.21701 27 ft 20 kts 305°
2026-04-26 16:27 -22.01633 166.21638 27 ft 8 kts 335°
2026-04-26 16:27 -22.01582 166.21648 29 ft 8 kts 29°
2026-04-26 16:27 -22.01555 166.21666 28 ft 0 kts 32°
2026-04-26 16:28 -22.01549 166.21669 29 ft 3 kts 22°
2026-04-26 16:28 -22.01502 166.21635 24 ft 13 kts 305°
2026-04-26 16:29 -22.01446 166.21535 24 ft 17 kts 300°
2026-04-26 16:29 -22.01390 166.21470 26 ft 10 kts 344°
2026-04-26 16:29 -22.01324 166.21488 25 ft 10 kts 29°
2026-04-26 16:29 -22.01266 166.21525 23 ft 10 kts 39°
2026-04-26 16:30 -22.01264 166.21559 23 ft 0 kts 133°
2026-04-26 16:30 -22.01340 166.21600 28 ft 0 kts 121°